Weather in Shchebzavod

Russia / Kemerovo Oblast     54°11′48″N   86°10′37″E
temp.,
°C
wind,
m/s
gust,
m/s
humid.,
%
clouds,
%
prec.,
mm/h
press.,
hPa
HPBL,
m
24 january, mon
mon2401:00−14nnw1196100 0.2 103554
04:00−13nnw1296100 0.6 103589
07:00−15nw119871 1.2 103611
10:00−20sw11100100 0.0 10389
13:00−14n109497 0.1 1038154
16:00−13e119452 0.0 103836
19:00−20ssw2210085 0.0 104014
22:00−22ssw229866 0.0 104113
25 january, tue
tue2501:00−21ssw2298100 0.0 104017
04:00−23s22995 0.0 103910
07:00−24ssw221005 0.0 103811
10:00−19ssw1197100 0.0 103732
13:00−13wsw1387100 0.0 1035296
16:00−11wsw2386100 0.0 1034386
19:00−14sw2295100 0.0 103450
22:00−15s2295100 0.0 103545
26 january, wed
wed2601:00−17s2295100 0.0 103433
04:00−18s2395100 0.0 103444
07:00−18s2394100 0.0 103350
10:00−18sse2394100 0.0 103351
13:00−12s2483100 0.0 1031267
16:00−10s3582100 0.0 1030404
19:00−13s249291 0.0 103195
22:00−14sse239484 0.0 103263
27 january, thu
thu2701:00−17s229799 0.0 103324
04:00−18s229845 0.0 103520
07:00−20s2210041 0.0 103611
10:00−19ssw2210021 0.0 103821
13:00−10sw248681 0.0 1037372
16:00−9wnw0190100 0.0 1037110
19:00−17ssw219949 0.0 104010
22:00−21ssw2210015 0.0 104110
28 january, fri
fri2801:00−21ssw2210045 0.0 104010
04:00−22ssw2210037 0.0 104010
07:00−22s2110024 0.0 104110
10:00−22s111006 0.0 104110
13:00−12ene118951 0.0 1038153
16:00−12ene129389 0.0 1037102
19:00−19sse1110051 0.0 10389
22:00−21s1110064 0.0 10389